Volver al catálogo

EUCROPIS

ActivoCienciaSSO
NORAD 43807·PAYLOAD·🇩🇪 Germany

Lanzado Dec 3, 2018 desde Vandenberg Space Force Base

Loading…

Próximos Pases (próximas 24 horas)

TLE

ActualizadoSource: Space-Track

Época: Sep 14, 2026, 14:16 UTC

1 43807U 18099BB  26257.59464112  .00005502  00000-0  24608-3 0  9998
2 43807  97.4129 312.0396 0004893   2.9372 357.1892 15.21702590426051

Sigue EUCROPIS en tiempo real con AllMySat

Download on the App Store